This is the latest recevied weather packets stored in our database for station/object TA2NC-13. If no packets are shown the sender has not sent any weather packets the latest 10 day(s).
| Time | Temp. | Humidity | Pressure | Rain* | Wind** | Luminosity | Snow |
|---|---|---|---|---|---|---|---|
| 1778163001 | 18.89° C | 37% | 1021 hPa | 0 mm | - | - | - |
| 1778162401 | 18.89° C | 36% | 1021 hPa | 0 mm | - | - | - |
| 1778161801 | 19.44° C | 35% | 1021 hPa | 0 mm | - | - | - |
| 1778161200 | 19.44° C | 37% | 1021 hPa | 0 mm | - | - | - |
| 1778160600 | 19.44° C | 35% | 1021 hPa | 0 mm | - | - | - |
| 1778160001 | 19.44° C | 33% | 1021 hPa | 0 mm | - | - | - |
| 1778159400 | 19.44° C | 36% | 1021 hPa | 0 mm | - | - | - |
| 1778158800 | 19.44° C | 36% | 1021 hPa | 0 mm | - | - | - |
| 1778158200 | 19.44° C | 37% | 1021 hPa | 0 mm | - | - | - |
| 1778157601 | 19.44° C | 37% | 1021 hPa | 0 mm | - | - | - |
| 1778157001 | 18.89° C | 37% | 1021 hPa | 0 mm | - | - | - |
| 1778156401 | 18.33° C | 39% | 1021 hPa | 0 mm | - | - | - |
| 1778155801 | 18.89° C | 41% | 1021 hPa | 0 mm | - | - | - |
| 1778155201 | 18.89° C | 38% | 1021 hPa | 0 mm | - | - | - |
| 1778154600 | 18.33° C | 36% | 1021 hPa | 0 mm | - | - | - |
| 1778154383 | 18.89° C | 36% | 1021 hPa | 0 mm | - | - | - |
| 1778154001 | 18.89° C | 36% | 1021 hPa | 0 mm | - | - | - |
| 1778153401 | 18.89° C | 38% | 1021 hPa | 0 mm | - | - | - |
| 1778152801 | 18.33° C | 39% | 1021 hPa | 0 mm | - | - | - |
| 1778152201 | 18.33° C | 42% | 1021 hPa | 0 mm | - | - | - |
| 1778151601 | 17.78° C | 42% | 1021 hPa | 0 mm | - | - | - |
| 1778151001 | 18.33° C | 41% | 1021 hPa | 0 mm | - | - | - |
| 1778150401 | 17.78° C | 43% | 1021 hPa | 0 mm | - | - | - |
| 1778149800 | 17.78° C | 40% | 1021 hPa | 0 mm | - | - | - |
| 1778149201 | 17.78° C | 41% | 1021 hPa | 0 mm | - | - | - |
* Rain latest hour (hover to see other rain measurements)
** Current wind speed in m/s (hover to see current wind gust speed)